Weather History for KFDY - January, 2015

Change the Weather History Date:

Thursday, January 22, 2015

  Actual Average Record
Temperature  
Mean Temperature 28 °F -  
Max Temperature 30 °F 34 °F 59 °F (1999)
Min Temperature 27 °F 21 °F -9 °F (2014)
Degree Days  
Heating Degree Days 36    
Moisture  
Dew Point 24 °F    
Average Humidity 84    
Maximum Humidity 92    
Minimum Humidity 69    
Precipitation  
Precipitation 0.00 in - - ()
Sea Level Pressure  
Sea Level Pressure 30.32 in    
Wind  
Wind Speed 5 mph (WNW)    
Max Wind Speed 7 mph    
Max Gust Speed -    
Visibility 6 miles    
Events      
Averages and records for this station are not official NWS values.
T = Trace of Precipitation, MM = Missing Value Source: NWS Daily Summary

Daily Weather History Graph

Daily Weather History Graph

Search for Another Location

Airport or City:

Trip Planner

Search our weather history database for the weather conditions in past years. The results will help you decide how hot, cold, wet, or windy it might be!

Date:

Astronomy

Jan. 22, 2015 Rise Set
Actual Time 7:53 AM EST 5:39 PM EST
Civil Twilight 7:23 AM EST 6:08 PM EST
Nautical Twilight 6:50 AM EST 6:42 PM EST
Astronomical Twilight 6:17 AM EST 7:15 PM EST
Moon 9:03 AM EST (1/22) 8:39 PM EST (1/22)
Length of Visible Light 10h 45m
Length of Day
9h 45m
Waxing Crescent, 7% of the Moon is Illuminated
Jan 22
Waxing Crescent
Jan 26
First Quarter
Feb 3
Full
Feb 11
Last Quarter
Feb 18
New

Hourly Weather History & Observations

Time (EST) Temp. Windchill Dew Point Humidity Pressure Visibility Wind Dir Wind Speed Gust Speed Precip Events Conditions
12:17 AM 28.0 °F 22.8 °F 26.1 °F 92% 30.17 in 2.5 mi North 4.6 mph - 0.00 in   Overcast
12:30 AM 28.0 °F 20.8 °F 25.0 °F 88% 30.17 in 3.0 mi North 6.9 mph - 0.00 in   Overcast
12:45 AM 28.0 °F 20.8 °F 25.0 °F 88% 30.18 in 4.0 mi North 6.9 mph - 0.00 in   Overcast
12:53 AM 28.0 °F 20.8 °F 25.0 °F 88% 30.20 in 5.0 mi North 6.9 mph - 0.00 in   Overcast
1:40 AM 28.0 °F 22.8 °F 24.1 °F 85% 30.18 in 5.0 mi North 4.6 mph - N/A   Overcast
1:53 AM 28.0 °F 21.7 °F 25.0 °F 88% 30.20 in 5.0 mi North 5.8 mph - N/A   Overcast
2:40 AM 27.0 °F - 25.0 °F 92% 30.21 in 5.0 mi Calm Calm - N/A   Overcast
2:53 AM 27.0 °F 23.0 °F 25.0 °F 92% 30.24 in 4.0 mi WNW 3.5 mph - N/A   Overcast
3:16 AM 27.0 °F 21.6 °F 25.0 °F 92% 30.23 in 4.0 mi West 4.6 mph - N/A   Overcast
3:23 AM 27.0 °F 21.6 °F 25.0 °F 92% 30.23 in 4.0 mi WNW 4.6 mph - N/A   Overcast
3:53 AM 28.0 °F 22.8 °F 25.0 °F 88% 30.26 in 4.0 mi WSW 4.6 mph - N/A   Overcast
4:32 AM 28.0 °F 24.2 °F 25.0 °F 88% 30.24 in 3.0 mi West 3.5 mph - N/A   Overcast
4:53 AM 28.0 °F 24.2 °F 26.1 °F 92% 30.27 in 3.0 mi WNW 3.5 mph - N/A   Overcast
5:07 AM 28.0 °F 24.2 °F 26.1 °F 92% 30.25 in 3.0 mi West 3.5 mph - N/A   Overcast
5:53 AM 28.0 °F - 26.1 °F 92% 30.28 in 3.0 mi Calm Calm - N/A   Overcast
6:26 AM 28.9 °F - 25.0 °F 85% 30.28 in 3.0 mi Calm Calm - N/A   Overcast
6:53 AM 28.0 °F 22.8 °F 26.1 °F 92% 30.31 in 3.0 mi SW 4.6 mph - N/A   Overcast
7:07 AM 28.9 °F 22.8 °F 25.0 °F 85% 30.30 in 4.0 mi West 5.8 mph - N/A   Overcast
7:44 AM 28.9 °F 25.2 °F 25.0 °F 85% 30.32 in 5.0 mi NW 3.5 mph - N/A   Overcast
7:53 AM 28.9 °F 23.9 °F 25.0 °F 85% 30.34 in 5.0 mi NW 4.6 mph - N/A   Overcast
8:53 AM 28.0 °F 20.8 °F 23.0 °F 81% 30.38 in 7.0 mi NW 6.9 mph - N/A   Overcast
9:53 AM 28.0 °F 21.7 °F 24.1 °F 85% 30.41 in 6.0 mi WNW 5.8 mph - N/A   Overcast
10:53 AM 28.9 °F 22.8 °F 24.1 °F 82% 30.43 in 7.0 mi NW 5.8 mph - N/A   Overcast
11:53 AM 28.9 °F 23.9 °F 23.0 °F 78% 30.41 in 8.0 mi NW 4.6 mph - N/A   Overcast
12:53 PM 30.0 °F 25.2 °F 23.0 °F 75% 30.40 in 10.0 mi NW 4.6 mph - N/A   Overcast
1:53 PM 30.0 °F 25.2 °F 23.0 °F 75% 30.40 in 10.0 mi NW 4.6 mph - N/A   Overcast
2:53 PM 30.0 °F 25.2 °F 23.0 °F 75% 30.41 in 10.0 mi West 4.6 mph - N/A   Overcast
3:53 PM 30.0 °F 24.1 °F 24.1 °F 79% 30.42 in 9.0 mi West 5.8 mph - N/A   Overcast
4:53 PM 30.0 °F 23.2 °F 23.0 °F 75% 30.44 in 10.0 mi WNW 6.9 mph - N/A   Overcast
5:53 PM 30.0 °F 26.5 °F 23.0 °F 75% 30.44 in 10.0 mi WNW 3.5 mph - N/A   Overcast
6:53 PM 30.9 °F 27.5 °F 21.9 °F 69% 30.43 in 10.0 mi WNW 3.5 mph - N/A   Overcast
7:53 PM 28.9 °F 23.9 °F 23.0 °F 78% 30.44 in 10.0 mi SW 4.6 mph - N/A   Overcast
8:53 PM 30.0 °F 26.5 °F 23.0 °F 75% 30.43 in 10.0 mi WSW 3.5 mph - N/A   Overcast
9:53 PM 30.0 °F 26.5 °F 23.0 °F 75% 30.43 in 10.0 mi WNW 3.5 mph - N/A   Overcast
10:53 PM 30.0 °F 26.5 °F 23.0 °F 75% 30.42 in 10.0 mi WNW 3.5 mph - N/A   Overcast
11:53 PM 30.0 °F 25.2 °F 23.0 °F 75% 30.41 in 10.0 mi WSW 4.6 mph - N/A   Overcast